Flag for Austria Weather past 2 weeks in Knittelfeld, Styria, Austria

Now
86 °F

Scattered clouds.


Feels Like: 85 °F
Forecast: 61 / 90 °F
Wind: 5 mph from North

Location: Zeltweg

Current Time: Jul 4, 2015 at 2:56:02 PM

Latest Report: Jul 4, 2015 at 1:50 PM


Visibility: 22 mi

Pressure: 30.24 "Hg (28.13 "Hg at 641m altitude)

Humidity: 35%

Dew point: 55 °F

Location of KnittelfeldLocation

Historic Weather in Knittelfeld — Graph

°F

Knittelfeld temperature yesterday

Maximum temperature yesterday: 86 °F (at 2:50 PM)
Minimum temperature yesterday: 61 °F (at 5:50 AM)
Average temperature yesterday: 77 °F

Past Weeks' High & Low Weather Summary

 TemperatureHumidityPressure
High86 °F (Jul 2, 1:50 PM)100% (Jun 26, 4:50 AM)30.39 "Hg (Jun 26, 4:50 AM)
Low41 °F (Jun 25, 5:50 AM)30% (Jun 30, 3:50 PM)29.80 "Hg (Jun 23, 4:50 AM)
Average63 °F62%30.13 "Hg
* Reported Jun 19 12:20 PM — Jul 4 12:50 PM, Knittelfeld, Weather by CustomWeather, © 2015

Note: Actual official high and low records may vary slightly from our data, if they occured in-between our weather recording intervals... More about our weather records

Advertising

Knittelfeld weather history for previous 24 hours

 ConditionsComfort  
Time TempWeatherWind HumidityBarometerVisibility
12:50 PM
Sat, Jul 4
84 °FScattered clouds.3 mph43%30.27 "Hg22 mi
11:50 AM81 °FPartly sunny.2 mph54%30.27 "Hg19 mi
10:50 AM77 °FScattered clouds.2 mph61%30.30 "Hg19 mi
9:50 AM72 °FScattered clouds.2 mph69%30.30 "Hg19 mi
8:50 AM68 °FScattered clouds.1 mph78%30.33 "Hg12 mi
7:50 AM66 °FScattered clouds.1 mph88%30.33 "Hg9 mi
6:50 AM64 °FPartly sunny.2 mph100%30.33 "Hg9 mi
5:50 AM61 °FPassing clouds.1 mph94%30.36 "Hg9 mi
4:50 AM63 °FPassing clouds.2 mph88%30.36 "Hg9 mi
10:50 PM
Fri, Jul 3
72 °FPassing clouds.5 mph69%30.39 "Hg9 mi
9:50 PM73 °FPassing clouds.5 mph65%30.36 "Hg9 mi
8:50 PM75 °FScattered clouds.6 mph61%30.36 "Hg25 mi
7:50 PM79 °FScattered clouds.7 mph54%30.33 "Hg25 mi
6:50 PM81 °FScattered clouds.8 mph51%30.33 "Hg25 mi
5:50 PM82 °FScattered clouds.14 mph48%30.30 "Hg25 mi
4:50 PM86 °FPassing clouds.10 mph43%30.30 "Hg25 mi
3:50 PM86 °FScattered clouds.9 mph40%30.30 "Hg25 mi
3:20 PM86 °FPassing clouds.8 mph40%30.30 "Hg25 mi
2:50 PM86 °FScattered clouds.9 mph43%30.30 "Hg25 mi
2:20 PM84 °FPassing clouds.8 mph43%30.33 "Hg25 mi
Weather by CustomWeather, © 2015

See weather overviewHow to use our weather pages